WB4E-13 Weather Reports


time (UTC)temp
F
wind
direction
speed
knots
gust
knots
rain 1hr
in
rain 24hr
in
rain mn
in
humidity
%
barometer
mb
20260504005304 61 180 0.0 0.0 0.00 0.00 0.00 49 1013.6
20260504001334 63 40 0.0 0.9 0.00 0.00 0.00 45 1013.6
20260504000334 63 40 0.0 0.9 0.00 0.00 0.00 44 1013.6
20260503235334 64 40 0.0 1.7 0.00 0.00 0.00 43 1013.7
20260503234334 64 40 0.9 1.7 0.00 0.00 0.00 42 1013.8
20260503233337 64 33 0.9 1.7 0.00 0.00 0.00 42 1013.9
20260503232336 65 58 0.0 0.9 0.00 0.00 0.00 41 1014.0
20260503231639 65 272 0.9 1.7 0.00 0.00 0.00 40 1014.1
20260503231336 65 272 0.9 1.7 0.00 0.00 0.00 40 1014.1
20260503230335 65 217 0.0 0.9 0.00 0.00 0.00 39 1014.2
20260503225335 65 52 0.0 0.9 0.00 0.00 0.00 40 1014.3
20260503224335 65 273 0.9 7.0 0.00 0.00 0.00 38 1014.3
20260503223335 65 242 0.0 6.1 0.00 0.00 0.00 36 1014.4
20260503222335 65 306 2.6 1.7 0.00 0.00 0.00 37 1014.5
20260503221334 65 191 0.9 5.2 0.00 0.00 0.00 38 1014.6
20260503220334 65 252 0.9 1.7 0.00 0.00 0.00 37 1014.6
20260503215334 65 247 0.0 5.2 0.00 0.00 0.00 41 1014.7
20260503214334 65 288 6.1 2.6 0.00 0.00 0.00 39 1014.7
20260503213334 65 18 0.0 5.2 0.00 0.00 0.00 41 1014.8
20260503212333 66 277 3.5 5.2 0.00 0.00 0.00 40 1014.9
20260503211333 65 280 5.2 7.0 0.00 0.00 0.00 39 1015.0
20260503210339 65 283 2.6 3.5 0.00 0.00 0.00 40 1015.0
20260503205338 66 346 0.9 7.0 0.00 0.00 0.00 41 1015.1
20260503204337 65 262 1.7 5.2 0.00 0.00 0.00 41 1015.2
20260503203337 64 79 1.7 5.2 0.00 0.00 0.00 40 1015.4
20260503202418 65 227 0.9 7.0 0.00 0.00 0.00 40 1015.7
20260503202337 65 227 0.9 7.0 0.00 0.00 0.00 40 1015.7
20260503201337 66 271 2.6 3.5 0.00 0.00 0.00 38 1015.8
20260503200336 65 281 5.2 5.2 0.00 0.00 0.00 39 1016.0
20260503195337 65 321 1.7 6.1 0.00 0.00 0.00 40 1016.1
20260503194336 65 240 0.0 1.7 0.00 0.00 0.00 42 1016.2
20260503193417 65 289 0.0 5.2 0.00 0.00 0.00 40 1016.4
20260503193336 65 289 0.0 5.2 0.00 0.00 0.00 40 1016.4
20260503192336 65 292 8.7 6.1 0.00 0.00 0.00 42 1016.4
20260503191336 64 271 0.0 4.3 0.00 0.00 0.00 43 1016.5
20260503190335 63 301 2.6 3.5 0.00 0.00 0.00 41 1016.6
20260503185335 64 345 1.7 6.1 0.00 0.00 0.00 39 1016.8
20260503184335 63 349 0.0 6.1 0.00 0.00 0.00 40 1016.9
20260503183335 63 283 2.6 7.8 0.00 0.00 0.00 44 1017.0
20260503182335 63 274 0.9 7.0 0.00 0.00 0.00 43 1017.2
20260503181454 63 38 1.7 1.7 0.00 0.00 0.00 42 1017.3
20260503181335 63 38 1.7 1.7 0.00 0.00 0.00 42 1017.3
20260503180334 62 15 0.9 9.6 0.00 0.00 0.00 41 1017.4
20260503170333 60 345 0.9 1.7 0.00 0.00 0.00 44 1018.2